Theta_e
301 301 301 301 300 299 298 298 299 296 298 300 300 303 303 300 298 296 295 294 293 293 292 291 290 290 290 290 290 291 293 294 295 295 299 302 312 318 321 323 323 322 320 319
300 300 300 299 299 297 298 298 300 302 304 304 303 302 300 297 296 295 294 293 292 291 291 290 289 289 288 289 289 290 290 291 293 293 295 297 296 307 300 312 314 315 314 314
296 299 298 297 299 298 303 304 305 305 305 305 302 300 297 295 295 294 292 292 291 290 290 289 288 288 288 287 287 288 289 289 290 292 292 293 295 293 295 292 302 301 300 302
297 298 295 303 302 303 302 303 302 302 304 305 300 295 294 293 293 293 292 290 290 289 288 288 287 286 287 286 286 286 286 287 287 288 290 291 294 294 292 290 289 291 292 293
299 300 299 303 301 300 301 302 297 297 300 296 294 293 293 292 291 290 289 288 287 287 286 286 286 285 285 285 285 285 285 285 286 286 286 288 290 291 291 290 287 287 288 289
301 301 301 299 298 298 299 303 295 294 295 296 296 300 293 290 289 287 287 286 287 286 285 285 284 284 284 284 284 283 283 284 284 285 285 285 286 286 288 288 286 286 286 286
301 302 302 297 296 297 303 299 294 292 292 297 292 291 288 287 286 285 285 286 285 285 285 285 284 283 283 283 282 282 282 282 283 284 284 284 285 285 285 285 285 284 284 283
301 302 302 295 296 297 295 294 292 291 290 289 287 286 285 284 283 283 284 284 284 284 284 284 284 284 283 283 282 281 281 282 282 282 282 283 284 284 284 285 284 284 283 282
300 299 296 294 293 292 292 291 291 289 287 286 285 283 282 282 281 281 282 282 283 283 283 283 283 283 284 283 282 282 281 281 282 282 282 282 283 283 284 284 284 284 284 284
298 296 295 294 292 291 290 289 287 286 286 284 283 282 281 280 280 279 279 280 281 281 281 281 281 282 282 283 282 283 282 282 282 282 281 282 283 283 284 284 284 285 285 284
297 295 294 293 292 290 289 287 286 285 285 284 282 282 282 281 280 279 278 278 279 279 280 279 280 281 281 282 283 282 281 282 282 281 281 281 281 282 283 283 283 284 284 284
297 295 294 293 291 290 289 287 286 285 284 282 281 281 280 279 279 278 277 277 277 277 277 277 278 279 280 280 282 283 282 281 280 281 281 280 281 281 280 281 281 281 281 281
294 293 292 290 289 288 286 285 284 283 283 282 281 280 280 279 279 278 277 276 275 274 276 277 278 279 280 280 280 280 280 280 279 279 279 280 279 280 280 278 278 278 279 279
291 291 291 290 288 287 286 284 283 282 282 281 281 280 280 279 278 277 276 276 275 274 275 276 277 277 278 279 279 280 279 279 278 277 277 278 278 278 278 278 277 276 274 275
292 291 291 289 287 286 285 284 283 282 281 280 280 279 278 277 275 274 274 274 274 273 274 275 276 276 278 278 278 278 278 278 278 277 276 276 276 276 276 276 275 275 275 274
291 290 289 288 287 286 285 284 283 282 281 280 278 277 276 274 273 272 272 272 272 271 271 273 274 275 276 277 277 277 277 278 278 277 276 276 275 276 275 275 274 273 273 273
291 291 290 288 287 285 285 283 282 281 279 278 277 276 275 274 273 272 271 271 271 271 271 271 272 274 275 276 276 276 277 277 277 276 275 275 275 275 274 274 273 272 271 271
289 290 290 288 286 284 282 281 280 279 277 276 274 274 273 273 272 271 271 271 271 272 271 270 271 272 274 275 275 275 275 276 276 276 275 275 274 274 274 273 273 272 271 270
287 287 286 285 283 281 279 278 276 275 274 274 274 272 272 272 272 271 271 272 272 272 270 270 270 271 272 272 273 273 274 274 274 274 274 274 274 273 273 273 272 271 271 270
282 281 280 279 278 277 275 274 274 273 273 273 273 272 271 272 272 272 272 271 271 270 269 269 269 270 271 271 271 271 271 272 272 272 272 272 272 272 272 272 271 271 270 270
278 276 275 273 272 274 274 274 274 273 272 273 273 273 272 272 273 273 272 273 271 270 270 270 269 269 270 270 270 270 270 270 270 270 270 270 270 271 271 271 270 270 269 269
274 272 271 272 272 270 272 273 273 272 272 272 272 273 273 273 273 272 272 272 271 270 270 270 269 269 269 269 269 269 269 269 269 269 269 269 269 269 269 269 269 269 269 268
273 272 272 272 273 272 273 273 272 272 273 274 274 273 273 273 273 274 274 272 271 271 270 270 270 269 269 269 269 269 268 268 268 268 268 268 267 267 267 268 268 268 268 268
272 272 273 273 272 272 272 272 273 273 273 273 273 273 273 274 274 273 273 272 272 271 271 270 270 270 270 270 269 269 269 268 268 268 268 268 268 267 267 267 267 267 267 267
274 273 272 273 274 275 274 274 274 274 275 274 274 275 275 274 274 273 273 273 272 272 272 271 271 271 271 271 270 270 270 270 269 269 268 268 268 268 267 267 267 267 267 266
275 275 275 276 276 276 276 275 276 276 275 275 274 273 273 273 273 273 273 273 273 273 272 272 271 271 270 270 270 270 270 270 269 269 269 269 268 268 268 268 267 267 267 266
276 275 276 276 277 278 278 277 276 275 275 274 273 273 273 273 273 273 273 272 272 271 270 270 269 268 268 267 267 267 268 267 268 268 268 268 268 268 268 267 267 267 267 266
Wind_Speed
1 3 2 3 8 7 7 8 7 8 16 19 16 13 4 2 5 9 11 13 14 16 14 21 24 27 29 30 33 31 27 27 25 20 17 15 11 10 14 27 28 24 21 18
3 6 6 9 12 10 9 10 13 16 21 19 10 8 7 5 5 7 9 12 14 14 16 20 24 26 27 28 29 29 29 30 26 26 24 21 22 16 16 25 27 25 22 18
2 1 3 8 8 9 2 5 9 12 16 12 5 8 5 6 5 6 8 10 13 13 16 20 22 23 25 26 28 29 30 30 29 24 24 26 25 30 23 18 28 24 21 16
1 2 3 4 6 2 4 9 3 11 11 8 10 12 8 7 5 7 8 11 11 14 18 21 21 24 23 26 27 27 28 29 31 28 27 26 32 28 26 25 22 27 24 19
1 2 4 4 4 3 4 3 8 10 7 9 13 14 11 8 9 9 9 11 13 17 17 18 22 23 23 25 26 27 28 29 29 29 29 29 32 29 32 25 26 30 29 27
3 2 2 1 11 8 7 3 10 9 8 10 6 1 4 8 8 10 13 13 15 18 18 21 23 21 22 24 25 27 27 26 28 29 30 31 32 29 28 31 30 29 32 32
3 2 1 6 13 8 3 5 8 10 10 4 5 6 8 7 9 12 12 16 16 17 19 20 21 21 22 22 25 23 25 26 28 28 28 29 31 31 32 30 31 30 30 35
3 3 2 12 2 3 5 5 7 9 10 13 13 10 8 8 9 12 15 17 17 17 18 19 20 21 21 22 21 23 24 27 28 29 27 27 29 28 27 25 27 26 27 30
2 2 3 6 6 5 6 6 7 8 9 10 8 7 9 10 10 13 14 15 16 16 17 20 21 21 21 20 20 20 23 25 26 28 29 27 26 24 23 23 21 21 23 22
4 3 5 6 7 7 8 9 8 9 9 8 10 9 9 8 9 12 14 16 15 17 19 20 21 21 19 19 17 19 21 21 21 25 26 26 25 24 21 20 20 19 19 19
3 6 7 7 7 7 9 9 10 9 9 9 11 10 9 9 11 13 14 15 16 16 16 18 19 21 21 20 17 18 18 18 19 19 20 23 29 26 24 27 20 17 18 17
2 3 4 5 7 7 9 8 8 10 11 12 13 11 12 11 12 12 13 14 16 16 16 17 19 21 23 21 19 16 17 17 16 15 15 15 16 20 30 29 27 25 23 21
3 5 10 9 8 9 11 10 11 11 12 11 12 13 13 13 12 12 13 14 15 16 18 19 22 24 24 23 22 20 17 16 15 14 14 13 12 12 13 16 24 26 24 21
11 10 7 4 6 10 13 13 14 13 13 12 12 11 11 12 11 13 13 11 12 15 19 19 21 23 21 20 19 19 17 17 14 14 13 13 12 12 11 11 12 13 18 19
10 2 7 12 12 10 11 10 9 9 10 11 11 11 11 12 12 12 10 9 11 14 19 20 22 22 18 17 18 18 15 13 12 12 13 12 11 10 10 11 11 11 10 14
10 11 11 10 9 8 8 7 8 8 8 9 10 11 12 12 12 12 12 14 14 14 16 18 20 19 17 14 14 15 13 12 10 8 9 9 8 8 8 9 10 11 11 11
12 10 9 8 8 7 6 7 9 9 10 9 10 10 11 11 11 10 9 11 14 15 16 17 17 15 15 14 13 12 10 9 8 6 7 8 8 8 7 7 8 9 10 12
4 6 8 10 10 9 8 10 12 11 9 9 11 12 11 9 7 6 7 7 6 12 15 15 15 13 13 13 12 10 9 9 8 8 7 7 7 7 7 6 7 7 7 8
10 11 13 13 12 13 12 10 10 13 13 12 13 12 10 8 6 6 8 10 11 10 14 15 14 12 13 14 12 11 10 9 8 8 7 5 4 5 5 5 5 5 5 5
14 14 15 14 13 14 13 14 15 14 12 12 13 11 10 7 5 5 5 7 7 6 10 13 13 12 12 12 12 10 10 10 8 7 7 6 4 3 2 2 3 3 3 3
12 13 15 16 17 17 16 15 16 14 12 9 9 9 7 6 6 5 4 4 5 7 8 10 13 12 11 11 11 11 11 10 9 9 8 7 6 4 2 1 1 1 1 1
11 12 16 19 19 17 14 14 13 13 11 10 9 7 5 4 3 3 4 3 4 6 7 8 11 11 10 9 10 11 9 9 8 8 8 8 7 7 5 4 3 3 3 3
15 17 19 19 17 16 14 12 12 12 11 8 6 5 4 2 2 2 2 4 4 5 6 6 7 8 8 8 9 9 8 8 7 7 8 9 9 8 6 5 5 5 5 5
17 15 16 16 17 14 11 10 10 9 7 6 4 2 1 1 2 1 1 1 2 4 5 6 7 8 9 10 10 10 9 9 8 8 8 8 8 8 7 6 6 6 8 8
16 17 17 14 11 9 10 10 8 5 3 2 1 2 4 6 7 6 6 5 4 6 7 8 10 11 13 14 14 15 15 14 12 11 10 9 9 8 8 8 8 8 9 10
15 13 12 11 11 10 9 8 5 3 2 4 4 4 6 7 8 7 7 7 5 7 11 12 12 12 12 13 14 15 17 18 18 15 14 14 12 11 12 11 11 11 10 10
12 13 11 8 7 6 7 6 4 3 3 3 3 3 6 7 6 7 5 4 5 5 7 8 10 11 13 14 16 16 15 14 15 14 13 12 13 14 17 15 12 12 12 11
Wind_Direction
29 132 170 229 248 220 207 223 235 282 279 280 283 299 103 51 6 26 21 6 16 16 0 353 352 354 360 4 6 4 12 15 18 20 23 42 83 124 155 156 160 165 161 160
267 250 241 254 259 269 257 262 265 278 279 281 269 134 95 67 31 31 27 16 21 13 5 358 359 358 360 6 6 13 14 20 14 26 35 42 51 98 59 137 143 143 142 142
193 104 289 265 264 223 195 248 275 282 306 316 152 110 89 84 44 37 29 24 21 17 8 5 2 3 5 5 14 17 21 21 19 22 37 51 54 61 65 38 122 118 112 113
174 269 222 118 42 165 277 271 319 305 320 335 128 99 85 55 56 50 34 32 26 19 10 9 8 8 14 18 19 21 23 24 26 24 36 46 65 60 55 44 65 88 89 83
178 242 323 175 49 327 321 333 14 336 3 101 105 95 67 60 53 53 41 39 31 29 18 14 15 12 16 23 26 25 22 22 25 33 35 41 52 60 69 67 46 64 71 70
165 228 244 76 323 312 305 239 9 356 335 162 180 84 75 57 50 50 44 41 36 31 27 24 17 22 27 22 23 23 19 20 31 36 41 44 49 54 65 72 65 60 64 65
226 271 228 356 318 317 219 1 16 20 7 154 83 63 83 60 50 48 44 40 39 39 31 28 23 24 29 25 23 22 28 34 38 41 46 49 56 56 61 60 65 61 61 63
187 225 288 0 10 41 330 50 52 46 45 73 81 79 78 61 47 39 39 36 36 41 36 31 30 33 30 28 25 36 39 39 41 43 44 50 57 56 58 58 61 58 60 60
341 75 46 46 65 40 48 69 63 74 68 81 89 76 63 53 42 35 37 37 35 39 40 36 34 35 36 25 25 34 42 44 44 47 46 46 48 49 51 54 58 58 59 63
180 109 79 101 90 79 76 83 83 84 92 98 95 78 67 59 48 42 36 37 36 39 35 32 29 31 31 29 30 37 41 45 49 51 49 47 48 47 53 54 57 60 66 68
95 128 121 92 82 99 96 94 89 83 95 98 96 83 81 72 58 49 45 40 41 40 35 30 30 32 28 26 30 40 42 42 45 48 57 58 56 53 55 55 58 63 62 68
144 97 89 75 100 99 98 95 102 102 92 87 95 94 89 78 68 60 52 43 43 38 36 30 32 32 31 27 30 34 38 38 41 46 50 55 59 62 63 66 63 65 68 71
127 93 101 102 89 98 96 91 91 94 96 96 86 90 86 83 73 67 57 49 43 39 40 41 41 39 37 36 36 39 38 38 40 46 52 57 58 63 70 63 69 65 62 65
118 113 114 163 123 113 105 103 98 95 89 86 85 80 80 78 71 61 52 50 47 47 47 47 45 40 37 38 38 42 45 44 46 47 44 49 53 56 64 61 54 44 50 60
160 90 119 125 121 116 115 114 103 96 94 86 80 80 78 73 63 55 48 50 54 49 43 41 42 34 34 36 36 37 40 39 45 49 51 51 50 53 51 50 49 46 41 43
128 123 130 130 128 125 117 109 102 97 94 93 91 85 87 90 84 70 57 54 54 41 35 37 36 28 28 32 37 38 37 37 39 43 45 43 45 52 56 55 53 49 43 35
134 151 149 146 143 133 118 113 109 104 95 91 95 97 93 87 74 62 60 61 57 51 42 34 27 23 26 30 33 28 27 32 39 49 52 53 56 57 62 65 64 60 54 50
122 141 154 154 145 131 119 113 114 117 115 118 115 115 116 109 97 74 70 69 69 50 40 30 26 24 29 32 32 27 25 25 27 29 32 41 49 57 65 70 72 73 70 65
114 115 117 119 125 121 120 114 107 115 115 117 124 118 111 102 100 84 67 49 43 37 21 23 22 27 33 33 31 28 25 25 26 26 25 25 37 50 62 71 76 73 71 71
100 103 107 105 111 118 116 124 122 117 118 126 124 119 116 104 85 76 63 50 43 34 21 20 23 30 31 30 28 27 27 26 23 18 21 23 25 37 55 77 76 75 74 77
112 114 109 111 106 114 123 132 130 122 126 129 130 131 119 100 80 82 69 57 30 26 27 25 27 30 31 28 26 26 23 23 25 27 25 17 6 0 353 331 333 339 350 355
125 116 119 121 120 121 123 123 123 126 131 131 127 121 113 103 92 74 76 66 36 29 26 27 30 31 31 27 25 25 23 24 22 19 16 11 6 1 354 343 322 294 279 285
129 130 133 136 133 127 126 131 138 140 136 136 139 141 133 128 95 81 67 39 39 28 25 24 20 18 17 16 13 10 10 7 4 360 354 350 345 335 325 323 322 312 307 299
135 136 134 135 134 134 135 144 140 142 138 136 134 142 188 303 310 262 314 330 353 355 353 350 350 348 343 340 338 336 338 334 333 326 330 327 331 333 337 326 314 312 307 303
142 140 142 147 145 138 138 141 140 143 153 151 122 330 319 303 283 277 286 300 301 313 323 325 323 321 317 316 315 313 308 304 304 304 307 310 306 303 301 301 304 301 300 294
149 150 152 146 137 139 144 151 137 131 123 110 100 58 23 4 356 332 286 291 295 319 322 321 327 334 339 337 330 324 319 305 289 285 288 287 290 291 289 288 288 292 289 295
145 149 146 140 151 167 178 176 155 127 119 107 107 31 10 11 10 16 15 356 351 9 8 355 350 351 350 348 344 339 332 321 323 305 290 293 286 290 286 277 276 286 290 288